Flag for Tuvalu Weather past 2 weeks in Funafuti, Tuvalu

Now
84 °F

Passing clouds.


Feels Like: 94 °F
Forecast: 78 / 86 °F
Wind: 2 mph from North

Location: Funafuti

Current Time: Mar 5, 2015 at 11:33:03 PM

Latest Report: Mar 5, 2015 at 11:00 PM


Visibility: N/A

Pressure: 29.65 "Hg

Humidity: 79%

Dew point: 77 °F

Location of FunafutiLocation

Historic Weather in Funafuti — Graph

°F

Funafuti temperature yesterday

Maximum temperature yesterday: 90 °F (at 2:00 PM)
Minimum temperature yesterday: 81 °F (at 6:00 AM)
Average temperature yesterday: 85 °F

Past Weeks' High & Low Weather Summary

 TemperatureHumidityPressure
High91 °F (Feb 24, 3:00 PM)100% (Mar 3, 2:00 AM)29.83 "Hg (Mar 3, 2:00 AM)
Low75 °F (Mar 3, 2:00 AM)63% (Feb 19, 11:00 AM)29.56 "Hg (Mar 5, 4:00 PM)
Average84 °F78%29.74 "Hg
* Reported Feb 18 10:00 PM — Mar 5 10:00 PM, Funafuti, Weather by CustomWeather, © 2015

Note: Actual official high and low records may vary slightly from our data, if they occured in-between our weather recording intervals... More about our weather records

Advertising

Funafuti weather history for previous 24 hours

 ConditionsComfort  
Time TempWeatherWind HumidityBarometerVisibility
10:00 PM
Thu, Mar 5
84 °FPartly cloudy.2 mph79%29.65 "HgN/A
9:00 PM84 °FPartly cloudy.6 mph79%29.62 "HgN/A
8:00 PM84 °FPartly cloudy.5 mph79%29.62 "HgN/A
7:00 PM84 °FPartly cloudy.2 mph79%29.59 "HgN/A
6:00 PM84 °FScattered clouds.5 mph79%29.56 "HgN/A
5:00 PM88 °FScattered clouds.9 mph70%29.56 "HgN/A
4:00 PM90 °FScattered clouds.3 mph67%29.56 "HgN/A
3:00 PM90 °FPassing clouds.3 mph67%29.59 "HgN/A
2:00 PM90 °FPassing clouds.3 mph67%29.59 "HgN/A
1:00 PM90 °FPassing clouds.3 mph67%29.62 "HgN/A
12:00 PM90 °FPassing clouds.3 mph67%29.65 "HgN/A
11:00 AM88 °FScattered clouds.6 mph79%29.68 "HgN/A
10:00 AM88 °FPassing clouds.5 mph75%29.68 "HgN/A
9:00 AM86 °FPassing clouds.3 mph79%29.68 "HgN/A
8:00 AM86 °FScattered clouds.No wind75%29.65 "HgN/A
7:00 AM84 °FScattered clouds.3 mph79%29.74 "HgN/A
6:00 AM82 °FPassing clouds.No wind84%29.71 "HgN/A
5:00 AM84 °FPassing clouds.No wind79%29.74 "HgN/A
3:00 AM84 °FPassing clouds.No wind79%29.71 "HgN/A
1:00 AM84 °FScattered showers. Partly cloudy.No wind79%29.74 "HgN/A
12:00 AM84 °FScattered showers. Passing clouds.13 mph79%29.71 "HgN/A
11:00 PM
Wed, Mar 4
84 °FPassing clouds.3 mph79%29.71 "HgN/A
Weather by CustomWeather, © 2015

See weather overviewHow to use our weather pages